Temperature
8 9 9 8 8 9 8 7 7 8 9 9 9 8 9 8 8 7 6 6 5 4 4 3 3 3 2 2 2 2 2 2 1 1 1 1 1 1 1 1 1 1 1 1
7 8 9 8 8 8 8 8 8 8 8 9 10 10 9 8 8 7 6 6 5 4 4 3 3 2 2 2 2 1 1 1 1 1 1 1 1 1 1 1 1 1 0 1
6 8 8 7 9 8 8 9 9 8 9 9 9 9 8 8 7 7 6 6 5 4 4 3 3 2 2 2 2 1 1 1 0 0 0 0 0 0 0 0 0 -0 -0 -0
6 7 6 9 10 10 9 9 9 9 9 9 9 9 8 8 7 7 6 5 5 4 4 3 3 2 2 2 1 1 1 0 0 0 0 -0 -0 -0 -0 -0 -1 -1 -1 -1
6 6 7 9 9 9 9 8 9 9 9 9 9 8 7 7 7 6 6 5 5 4 4 3 2 2 2 1 1 1 0 0 -0 -0 -0 -1 -1 -1 -1 -1 -1 -1 -1 -2
6 6 7 10 9 9 9 7 9 9 9 8 8 5 6 7 7 6 5 5 4 4 3 3 2 2 1 1 1 0 0 -0 -1 -1 -1 -1 -1 -1 -2 -2 -2 -2 -2 -2
5 5 7 9 8 8 7 8 9 9 9 8 7 6 7 7 6 6 5 5 4 3 3 2 2 2 1 1 1 0 -0 -0 -1 -1 -1 -1 -2 -2 -2 -2 -2 -2 -2 -3
5 5 6 7 7 7 8 9 9 9 8 8 7 7 6 6 5 5 5 4 4 3 3 2 2 1 1 1 0 -0 -1 -1 -1 -1 -2 -2 -2 -2 -2 -3 -3 -3 -3 -3
6 7 9 9 8 9 9 8 8 8 8 7 6 6 6 5 5 4 4 4 3 3 2 2 2 1 1 0 -0 -1 -1 -1 -1 -2 -2 -2 -2 -3 -3 -3 -4 -4 -4 -4
6 7 9 9 9 9 9 8 8 7 7 6 6 5 5 5 4 4 4 3 3 2 2 2 1 1 0 -0 -1 -1 -1 -1 -2 -2 -2 -2 -3 -3 -4 -4 -4 -5 -5 -5
5 6 8 9 9 9 8 7 7 7 6 6 5 5 4 4 4 3 3 3 2 2 2 1 1 0 -0 -1 -1 -1 -2 -2 -2 -2 -3 -3 -3 -4 -4 -5 -5 -6 -6 -6
5 7 7 8 8 8 7 7 6 6 5 5 5 4 4 4 3 3 3 2 2 2 1 1 0 0 -0 -1 -1 -2 -2 -2 -3 -3 -3 -4 -4 -4 -4 -5 -5 -6 -6 -6
8 8 7 7 7 7 6 6 6 5 5 5 4 4 4 3 3 3 2 2 2 1 1 0 0 -0 -1 -1 -2 -2 -2 -3 -3 -4 -4 -4 -4 -5 -4 -4 -5 -5 -6 -6
7 7 6 6 6 6 5 5 5 5 4 4 4 3 3 3 3 2 2 2 1 1 0 -0 -0 -1 -1 -2 -2 -2 -3 -3 -4 -4 -4 -5 -5 -5 -6 -6 -6 -5 -6 -6
6 6 5 5 5 5 5 4 4 4 4 3 3 3 3 3 2 2 2 1 1 0 0 -0 -1 -1 -2 -2 -2 -3 -3 -4 -4 -4 -5 -5 -6 -6 -6 -7 -7 -7 -7 -7
5 5 4 4 4 4 4 4 3 3 3 3 3 3 2 2 2 1 1 1 0 0 -0 -1 -1 -1 -2 -2 -3 -3 -4 -4 -5 -5 -5 -5 -6 -6 -7 -7 -7 -7 -8 -8
4 3 4 3 3 3 3 3 3 3 3 3 3 2 2 2 1 1 1 0 -0 -0 -1 -1 -1 -2 -2 -3 -3 -4 -4 -4 -5 -5 -6 -6 -6 -7 -7 -7 -8 -8 -8 -8
4 4 4 4 3 3 3 3 3 3 2 2 2 2 2 1 1 1 1 -0 -0 -1 -1 -1 -2 -2 -3 -3 -3 -4 -4 -5 -5 -5 -6 -6 -7 -7 -7 -8 -8 -8 -8 -8
4 4 4 4 4 3 3 3 3 3 2 2 2 2 2 1 1 0 0 -0 -1 -1 -1 -2 -2 -2 -3 -3 -4 -4 -5 -5 -5 -6 -6 -7 -7 -7 -7 -8 -8 -8 -8 -9
4 4 4 4 4 4 3 3 3 2 2 2 2 1 1 1 0 0 -0 -1 -1 -1 -2 -2 -2 -3 -3 -4 -4 -5 -5 -5 -6 -6 -6 -7 -7 -7 -8 -8 -8 -9 -9 -9
4 4 4 4 4 4 3 3 3 2 2 2 1 1 1 1 0 -0 -1 -1 -1 -2 -2 -2 -3 -3 -4 -4 -4 -5 -5 -6 -6 -6 -7 -7 -7 -8 -8 -8 -9 -9 -9 -9
4 4 4 4 4 4 3 3 2 2 2 1 1 1 1 0 -0 -0 -1 -1 -1 -2 -2 -3 -3 -3 -4 -4 -5 -5 -6 -6 -6 -7 -7 -7 -8 -8 -8 -8 -9 -9 -9 -9
4 4 4 4 4 3 3 3 2 2 2 1 1 1 0 0 -0 -1 -1 -1 -2 -2 -3 -3 -3 -4 -4 -5 -5 -5 -6 -6 -7 -7 -7 -8 -8 -8 -8 -9 -9 -9 -9 -9
4 3 3 3 3 3 3 3 2 2 1 1 1 0 -0 -0 -1 -1 -1 -2 -2 -3 -3 -3 -4 -4 -5 -5 -5 -6 -6 -6 -7 -7 -8 -8 -8 -8 -9 -9 -9 -9 -9 -9
3 3 3 3 3 3 2 2 2 1 1 1 0 -0 -0 -1 -1 -1 -2 -2 -3 -3 -3 -4 -4 -5 -5 -5 -6 -6 -6 -7 -7 -7 -8 -8 -8 -9 -9 -9 -9 -9 -9 -9
3 2 2 2 2 2 2 2 1 1 1 0 0 -0 -1 -1 -1 -2 -2 -3 -3 -3 -4 -4 -5 -5 -5 -6 -6 -6 -7 -7 -7 -8 -8 -8 -8 -9 -9 -9 -9 -10 -10 -10
2 2 2 2 2 2 2 1 1 1 1 0 -0 -0 -1 -1 -2 -2 -3 -3 -3 -4 -4 -4 -5 -5 -6 -6 -6 -7 -7 -7 -8 -8 -8 -8 -9 -9 -9 -9 -9 -10 -10 -10
Wind_Speed
9 11 9 10 10 10 11 10 8 7 8 8 4 3 3 3 3 3 2 3 3 2 1 1 0 1 2 3 4 4 5 5 5 5 6 6 6 6 6 6 7 6 6 6
7 9 10 12 13 13 12 13 14 13 13 7 3 2 2 3 3 3 3 2 2 2 2 1 1 0 1 2 3 3 4 5 5 5 6 6 6 6 6 6 6 6 6 6
5 6 8 9 11 12 9 8 9 12 10 4 3 3 3 3 3 4 3 3 2 2 3 2 1 1 0 1 2 3 3 4 5 5 6 6 7 6 6 6 6 6 6 6
4 6 7 6 1 3 7 9 10 9 6 4 3 2 2 3 4 3 3 2 2 2 2 2 2 1 0 1 1 2 3 4 4 5 5 6 6 6 6 5 6 6 6 7
3 5 9 6 4 4 4 6 8 9 6 4 1 2 4 3 3 3 2 2 2 2 2 2 2 1 0 1 1 2 3 4 4 5 5 6 6 6 5 5 5 5 6 6
4 5 6 3 4 4 1 6 5 5 5 3 3 2 3 2 3 2 2 2 2 2 2 2 2 1 1 1 2 2 3 3 4 4 5 5 6 6 5 5 5 6 6 6
8 7 8 3 6 5 3 5 2 4 4 4 5 5 3 3 2 2 2 2 2 2 2 2 2 1 1 2 2 2 2 3 4 4 5 5 5 5 5 6 6 6 7 7
6 7 9 5 7 7 5 1 1 2 3 4 4 2 2 3 3 3 3 2 2 2 2 2 2 2 2 3 2 1 2 3 4 5 5 5 5 5 5 6 6 6 7 7
8 10 4 8 8 5 2 3 3 3 3 3 4 4 4 4 4 4 4 4 3 3 2 2 2 2 2 2 1 2 3 3 4 5 4 4 5 5 5 5 5 6 6 7
7 10 8 8 9 7 6 5 4 4 4 4 5 5 5 5 5 5 4 4 3 3 3 3 2 2 2 1 1 2 3 4 4 4 5 5 4 4 4 5 5 6 7 7
9 10 10 10 9 7 5 4 4 4 4 5 6 6 6 5 5 5 4 4 4 4 4 3 2 2 2 1 0 2 3 4 4 4 4 5 5 4 5 4 6 7 6 7
11 8 6 5 3 2 3 5 5 5 5 5 6 6 5 5 5 4 4 4 4 4 4 3 3 2 2 1 1 1 3 3 3 3 4 4 5 6 8 9 12 13 12 12
13 9 8 7 4 3 5 5 5 5 6 6 5 5 5 4 4 4 4 5 5 4 4 3 3 3 2 1 1 2 3 3 3 4 4 5 5 6 8 10 12 13 14 15
10 9 10 8 7 6 5 5 4 5 6 6 5 4 4 4 4 5 5 5 5 4 4 3 3 3 2 2 1 2 3 4 4 3 4 5 5 6 6 8 9 8 11 15
11 10 9 6 5 5 4 4 5 6 6 5 5 5 5 6 6 5 4 4 4 4 4 4 4 3 3 2 2 3 3 2 3 3 4 5 5 6 6 7 8 9 8 10
7 6 7 8 8 7 6 7 7 8 6 6 6 6 6 6 5 4 4 5 5 6 5 5 5 4 3 3 2 2 3 5 4 4 4 5 5 5 6 7 8 8 8 8
9 9 8 8 9 8 8 8 8 8 6 7 7 6 5 5 4 5 5 5 5 5 5 5 4 3 3 3 3 2 2 3 5 4 4 4 5 5 6 7 7 8 8 10
10 10 9 8 8 8 8 7 7 7 7 6 6 6 6 7 8 7 6 5 4 4 4 5 4 4 4 3 3 2 2 3 3 4 4 4 5 5 6 7 8 9 9 10
7 7 7 7 6 6 7 7 7 6 6 5 6 7 7 7 6 5 5 5 6 6 5 5 7 5 4 4 4 2 3 3 4 4 4 7 6 5 6 6 7 8 9 9
6 6 6 6 6 6 6 6 5 5 5 6 6 6 6 6 6 6 6 6 6 5 5 6 5 5 4 5 5 3 3 4 4 4 4 4 5 5 6 7 7 8 8 8
7 7 7 6 6 6 6 5 5 6 6 7 8 8 8 6 6 6 6 6 5 6 6 7 5 4 4 5 5 3 3 3 4 4 4 4 5 6 6 6 7 8 8 8
6 6 7 6 6 6 5 5 6 6 6 7 7 7 7 7 7 6 6 6 5 7 6 5 5 6 7 6 3 4 4 4 4 4 4 4 5 5 6 7 7 8 8 8
6 6 6 6 6 5 4 5 6 6 7 8 8 9 9 8 7 6 6 5 5 9 6 5 7 9 9 5 4 4 4 4 4 4 4 4 5 5 6 7 7 7 8 8
6 6 6 5 4 5 6 6 6 6 6 7 7 8 7 6 5 6 4 7 9 9 6 8 10 10 9 4 4 4 4 4 4 4 4 4 5 5 5 6 7 7 8 9
7 6 6 6 6 7 7 6 5 6 6 5 6 7 7 6 6 5 5 6 9 9 5 8 10 10 6 3 4 4 4 5 5 4 4 4 5 5 5 6 7 7 8 8
7 7 7 8 7 6 5 5 5 6 6 6 6 6 6 5 5 5 5 6 8 9 6 5 5 6 4 4 4 5 4 5 5 5 4 4 5 5 6 6 8 7 7 8
7 6 6 6 6 7 6 6 7 7 7 7 6 6 6 6 6 6 7 6 6 6 5 5 5 5 4 4 4 4 4 4 4 4 4 4 5 5 6 7 7 7 7 8
Wind_Direction
269 278 274 258 250 236 226 225 238 252 266 269 259 234 222 212 213 209 212 208 199 200 203 176 88 2 6 356 353 353 354 356 354 348 346 348 347 347 349 350 350 348 349 351
279 262 261 262 250 238 239 237 242 257 270 262 240 224 213 209 215 221 228 225 204 192 191 185 180 332 0 347 347 350 349 347 347 349 350 349 343 342 344 346 344 344 345 345
277 295 301 268 241 224 219 218 222 242 248 242 251 240 234 229 225 224 221 218 203 192 186 182 167 132 330 336 346 346 340 341 346 348 349 347 343 344 343 340 340 339 338 338
283 306 259 244 102 177 220 235 227 238 248 240 242 265 258 234 223 219 208 203 198 184 170 153 134 134 181 330 332 331 336 342 346 347 343 341 341 338 334 332 332 329 327 327
271 278 275 259 191 175 209 262 229 229 236 232 170 321 272 219 184 190 191 179 173 161 152 146 152 163 185 296 312 327 334 339 340 341 336 333 331 325 322 324 323 321 320 323
258 265 262 261 132 115 103 274 225 190 201 188 151 240 251 157 143 149 124 110 115 124 133 156 164 142 199 279 305 314 326 329 327 324 320 318 315 315 316 317 314 315 316 315
240 254 266 238 141 132 186 249 147 159 182 187 202 215 184 147 148 145 133 125 127 144 161 172 150 143 230 266 282 298 318 313 311 310 307 305 308 311 314 314 315 317 315 316
205 225 250 178 154 195 221 169 179 202 205 212 223 223 185 180 180 175 175 170 164 167 181 167 152 176 239 256 269 300 309 306 307 309 312 320 316 314 317 319 321 319 320 320
212 224 236 180 203 221 195 223 235 235 237 221 231 236 224 209 199 194 195 188 180 184 192 191 180 186 239 268 302 319 308 305 307 312 315 317 316 317 321 321 318 316 319 319
265 261 257 237 236 238 229 228 238 239 236 226 231 233 227 213 203 199 197 192 186 189 200 208 195 195 225 262 314 308 301 304 309 313 315 317 316 313 313 314 315 318 320 319
257 270 276 259 244 241 235 222 230 245 239 230 230 234 229 220 212 205 197 187 187 201 211 212 196 201 199 182 146 299 300 304 310 312 310 311 310 306 307 293 303 312 309 309
245 243 250 272 255 228 227 229 228 235 247 242 230 229 226 220 212 207 197 187 194 205 211 211 195 193 181 161 177 269 290 300 307 312 311 311 313 313 312 313 316 316 313 311
248 261 267 280 283 251 237 236 231 227 233 240 233 220 217 216 205 198 196 193 199 205 209 205 190 194 184 162 198 258 275 291 302 309 311 314 317 318 319 321 320 320 320 319
256 264 267 258 252 242 237 233 230 234 234 228 226 215 207 207 203 201 203 197 190 192 197 190 189 202 186 167 210 261 277 290 298 297 303 306 307 308 310 313 318 318 320 321
251 244 252 262 255 245 232 227 235 240 236 230 216 208 202 204 207 208 196 179 176 189 194 188 196 207 176 173 217 256 272 277 289 298 300 299 301 304 306 307 309 312 316 322
263 256 258 257 251 244 232 227 233 241 235 226 218 213 207 201 199 194 188 179 185 202 202 197 204 199 175 185 223 248 264 282 294 296 297 299 302 305 308 310 312 313 316 319
255 253 242 245 245 244 236 230 231 236 233 224 219 206 191 184 190 201 198 189 192 200 197 196 198 184 181 192 213 240 259 279 291 295 291 296 300 303 305 307 309 311 311 314
241 242 235 234 236 239 240 235 231 229 229 224 203 187 190 196 205 206 194 180 186 204 209 196 187 187 193 199 210 234 253 265 275 281 288 293 297 298 302 304 306 308 311 315
251 248 244 242 236 231 235 237 234 228 222 204 193 198 204 206 204 195 179 182 200 219 219 194 198 197 200 210 217 227 244 262 274 281 287 297 303 301 300 301 303 305 310 314
257 249 242 241 238 228 233 235 230 226 214 197 194 198 205 205 193 186 189 207 217 211 186 181 187 196 201 213 221 224 240 255 268 279 285 288 292 296 299 302 304 305 308 309
255 250 242 238 240 235 230 225 217 222 213 196 198 207 210 204 189 184 195 221 223 192 187 195 193 198 202 213 224 224 234 247 261 269 278 285 290 294 296 299 303 306 308 310
250 245 242 237 235 241 233 216 211 214 209 205 204 203 201 202 198 200 212 218 209 192 188 195 197 206 210 218 217 222 230 242 256 263 268 276 283 289 293 298 301 304 304 305
254 245 240 234 231 234 231 217 210 210 212 211 208 205 205 206 199 201 223 211 193 199 195 201 207 213 219 216 212 218 228 239 249 256 263 270 277 283 289 294 296 299 301 303
249 245 241 234 219 224 236 233 218 214 213 214 213 207 201 203 213 213 208 192 194 200 203 209 213 218 219 208 210 219 229 238 245 251 259 268 275 278 284 289 293 296 298 300
246 245 239 228 229 235 236 226 216 215 211 218 218 211 207 206 209 203 185 188 199 202 206 215 218 219 211 205 214 223 230 237 244 247 249 262 269 275 280 284 288 292 295 296
241 241 239 232 232 233 222 213 220 219 210 217 222 212 204 200 195 189 185 189 197 204 203 204 209 214 204 208 219 226 231 250 264 261 253 259 266 272 278 282 285 288 291 293
239 238 239 243 239 228 221 217 222 224 215 215 221 209 197 194 193 193 191 192 194 199 200 199 199 200 204 211 219 226 231 236 242 247 251 255 261 268 275 280 285 288 292 294
Height
1503 1498 1496 1495 1494 1493 1495 1494 1494 1484 1480 1475 1475 1476 1476 1476 1477 1477 1477 1477 1477 1476 1476 1475 1473 1472 1470 1468 1466 1463 1461 1458 1456 1454 1452 1449 1447 1445 1443 1441 1439 1437 1435 1433
1502 1494 1491 1489 1485 1485 1486 1485 1483 1480 1477 1471 1472 1472 1473 1473 1474 1474 1474 1475 1474 1474 1473 1472 1471 1469 1468 1466 1464 1462 1459 1457 1455 1452 1450 1448 1446 1443 1441 1439 1437 1435 1433 1431
1504 1492 1491 1488 1475 1475 1477 1474 1475 1476 1471 1469 1470 1470 1470 1471 1471 1471 1471 1471 1471 1471 1470 1469 1468 1467 1465 1464 1462 1460 1458 1456 1453 1451 1448 1446 1444 1442 1440 1437 1435 1433 1431 1428
1505 1499 1497 1475 1465 1465 1467 1467 1467 1466 1465 1466 1467 1467 1468 1468 1468 1468 1468 1468 1468 1467 1467 1466 1465 1464 1463 1461 1460 1458 1456 1454 1451 1449 1447 1444 1442 1440 1438 1435 1433 1431 1428 1425
1505 1500 1484 1468 1465 1465 1467 1466 1461 1461 1462 1463 1464 1465 1465 1465 1464 1465 1465 1465 1465 1464 1464 1463 1462 1461 1460 1459 1457 1456 1454 1452 1449 1447 1445 1442 1440 1438 1435 1433 1430 1428 1425 1423
1503 1499 1488 1467 1465 1464 1467 1468 1456 1457 1459 1461 1462 1467 1464 1462 1462 1462 1462 1462 1462 1461 1461 1460 1459 1458 1457 1456 1454 1453 1451 1449 1447 1445 1443 1440 1438 1436 1433 1431 1428 1425 1422 1420
1504 1498 1479 1465 1464 1466 1473 1464 1456 1456 1457 1458 1460 1461 1460 1459 1459 1459 1459 1459 1458 1458 1457 1457 1456 1455 1454 1453 1451 1450 1449 1447 1445 1443 1440 1438 1436 1433 1431 1428 1425 1422 1420 1417
1495 1494 1480 1462 1463 1465 1460 1456 1455 1455 1456 1456 1457 1457 1457 1456 1456 1456 1456 1455 1455 1454 1454 1453 1453 1452 1451 1449 1448 1447 1445 1444 1442 1440 1438 1435 1433 1430 1428 1425 1422 1419 1416 1413
1477 1471 1459 1457 1456 1455 1455 1454 1454 1454 1454 1454 1454 1453 1453 1453 1453 1452 1452 1452 1451 1451 1450 1450 1449 1448 1447 1446 1445 1444 1442 1440 1439 1437 1435 1432 1430 1427 1425 1422 1419 1416 1413 1409
1468 1458 1454 1453 1452 1452 1452 1451 1450 1451 1451 1450 1450 1450 1450 1449 1449 1448 1448 1448 1448 1447 1446 1446 1446 1445 1444 1443 1442 1441 1439 1437 1435 1434 1432 1430 1427 1425 1422 1419 1416 1413 1410 1406
1463 1455 1451 1448 1447 1447 1447 1447 1447 1447 1446 1446 1446 1445 1446 1445 1445 1444 1444 1444 1444 1443 1443 1442 1442 1441 1440 1439 1438 1437 1436 1434 1432 1431 1428 1426 1424 1422 1419 1416 1414 1411 1407 1404
1455 1449 1448 1444 1443 1443 1443 1442 1442 1442 1442 1441 1441 1441 1441 1441 1441 1440 1440 1440 1439 1439 1439 1438 1438 1437 1437 1436 1435 1434 1432 1431 1429 1427 1425 1423 1420 1418 1416 1414 1411 1408 1405 1402
1444 1443 1443 1440 1440 1439 1439 1438 1438 1437 1437 1436 1436 1436 1435 1435 1436 1436 1435 1435 1435 1435 1435 1434 1434 1434 1433 1432 1431 1430 1429 1427 1426 1424 1422 1419 1417 1414 1410 1408 1407 1404 1401 1398
1440 1439 1436 1435 1435 1435 1434 1433 1433 1432 1431 1431 1431 1430 1430 1430 1430 1431 1431 1431 1431 1431 1431 1430 1430 1430 1430 1429 1428 1427 1426 1424 1422 1421 1419 1416 1414 1411 1408 1404 1401 1398 1396 1393
1433 1433 1431 1430 1429 1429 1429 1428 1427 1426 1426 1425 1425 1425 1425 1425 1425 1426 1426 1427 1427 1426 1426 1426 1426 1426 1426 1425 1424 1423 1422 1421 1419 1417 1415 1413 1411 1408 1405 1402 1398 1394 1391 1388
1426 1426 1425 1424 1423 1423 1423 1423 1422 1421 1421 1420 1420 1420 1420 1421 1421 1421 1422 1422 1422 1422 1422 1422 1422 1422 1422 1421 1420 1419 1418 1417 1415 1414 1412 1409 1407 1404 1401 1398 1395 1392 1388 1385
1420 1418 1418 1418 1417 1417 1417 1417 1417 1416 1416 1416 1416 1416 1416 1416 1416 1417 1417 1418 1418 1418 1418 1418 1418 1418 1418 1417 1416 1415 1414 1413 1412 1410 1408 1406 1403 1401 1398 1395 1392 1389 1385 1382
1413 1412 1413 1412 1412 1412 1411 1411 1411 1411 1411 1411 1411 1411 1412 1412 1412 1412 1413 1414 1414 1414 1414 1414 1414 1414 1413 1413 1412 1411 1410 1409 1408 1406 1404 1402 1400 1398 1395 1392 1389 1385 1382 1379
1407 1407 1407 1407 1407 1407 1406 1406 1406 1406 1406 1406 1406 1406 1407 1408 1408 1409 1409 1409 1409 1409 1409 1410 1409 1409 1409 1409 1408 1407 1406 1405 1404 1402 1400 1398 1396 1394 1391 1389 1386 1382 1379 1375
1403 1403 1403 1402 1402 1402 1401 1401 1402 1401 1402 1402 1402 1402 1402 1403 1404 1404 1405 1405 1405 1405 1405 1405 1405 1405 1405 1404 1404 1403 1402 1401 1400 1398 1397 1395 1392 1390 1388 1385 1382 1379 1376 1372
1400 1399 1399 1398 1398 1397 1397 1397 1396 1397 1397 1397 1397 1397 1398 1398 1399 1400 1400 1400 1401 1401 1401 1401 1401 1400 1400 1400 1399 1399 1398 1397 1396 1394 1393 1391 1389 1386 1384 1381 1379 1376 1372 1369
1397 1396 1395 1394 1394 1393 1393 1392 1392 1392 1392 1392 1392 1393 1393 1393 1394 1394 1395 1395 1396 1396 1396 1396 1396 1396 1396 1395 1395 1394 1394 1393 1391 1390 1388 1387 1385 1383 1380 1378 1375 1372 1369 1365
1394 1393 1392 1391 1390 1389 1388 1388 1387 1387 1387 1387 1387 1388 1388 1388 1389 1389 1389 1390 1391 1391 1391 1392 1392 1392 1391 1391 1390 1390 1389 1388 1387 1386 1384 1383 1381 1379 1376 1374 1371 1368 1365 1362
1390 1389 1388 1387 1386 1384 1383 1383 1383 1382 1382 1382 1382 1382 1383 1383 1383 1383 1384 1385 1386 1386 1386 1387 1387 1387 1386 1386 1386 1385 1385 1384 1383 1382 1380 1379 1377 1375 1373 1370 1367 1365 1362 1358
1385 1384 1383 1382 1381 1379 1379 1378 1377 1377 1376 1376 1376 1376 1377 1377 1378 1378 1379 1380 1380 1381 1381 1381 1382 1381 1381 1381 1381 1381 1380 1379 1378 1377 1376 1374 1373 1371 1369 1366 1364 1361 1358 1355
1380 1379 1377 1376 1376 1374 1373 1372 1371 1371 1370 1370 1370 1370 1371 1371 1372 1372 1373 1374 1375 1375 1376 1376 1376 1376 1376 1376 1376 1376 1375 1375 1374 1373 1371 1370 1368 1367 1365 1362 1360 1357 1354 1351
1373 1371 1370 1369 1369 1368 1367 1366 1365 1365 1364 1364 1364 1364 1364 1365 1365 1366 1367 1368 1369 1369 1370 1371 1371 1371 1371 1371 1371 1371 1371 1370 1369 1368 1367 1366 1364 1363 1361 1358 1356 1354 1351 1348